Weather in Skorodnoye

Russia / Belgorod Oblast     51°04′03″N   37°14′01″E
temp.,
°C
wind,
m/s
gust,
m/s
humid.,
%
clouds,
%
prec.,
mm/h
press.,
hPa
HPBL,
m
8 march, mon
mon800:00−1w91592100 0.4 1007931
03:00−1wsw7138997 0.6 1007659
06:00−2wsw7129399 0.2 1006683
09:00−1wsw81393100 0.8 1006911
12:000wnw6978100 1.0 10071055
15:000wnw696798 1.4 10081348
18:00−2wnw4777100 0.2 1009624
21:00−3wnw378279 0.2 1011443
9 march, tue
tue900:00−4wnw368615 0.0 1011307
03:00−5w358912 0.0 1012234
06:00−6nw4790100 0.2 1012412
09:00−7nnw578482 0.3 1014374
12:00−5nnw577589 0.0 1015767
15:00−6nnw677395 0.1 1018896
18:00−8nnw5776100 0.1 1019785
21:00−9nnw587793 0.1 1022636
10 march, wed
wed1000:00−10nnw35810 0.0 1023415
03:00−10nw358642 0.0 1024350
06:00−11nw358662 0.0 1025288
09:00−10nnw237933 0.0 1026300
12:00−8nnw33634 0.0 1026638
15:00−6nw23557 0.0 1026794
18:00−6nw236255 0.0 1025673
21:00−7nne117363 0.0 1026203
11 march, thu
thu1100:00−7ese227799 0.0 1027262
03:00−8e348796 0.1 1028257
06:00−9e458996 0.1 1028325
09:00−10e468498 0.2 1030357
12:00−9ese4576100 0.1 1030475
15:00−7ese336499 0.1 1029690
18:00−7ese456390 0.0 1029585
21:00−8ese585956 0.0 1030401
12 march, fri
fri1200:00−9se59560 0.0 1030408
03:00−9sse510550 0.0 1029390
06:00−9sse6115567 0.0 1028433
09:00−7sse8135383 0.0 1026614
12:00−4sse91350100 0.0 10241007
15:00−3s101544100 0.0 10221290
18:00−3s101648100 0.3 10191083
21:00−5s111793100 2.0 1017933